User: anonymous   Login
Location: Unspecified
(0.0000°N, 0.0000°E)
Time: 22:08:17
(UTC+00:00)
Language:

UHF F/O F2 - Orbit

View from above orbital plane
View from above orbital plane
View from above satellite
View from above satellite

Ground track
Ground track

The orbit is defined by the following mean orbital elements,

1 22787U          26140.26989301 +.00000000 +00000-0 +00000-0 0 00000
2 22787  11.8855   3.7104 0008307   1.2654 358.7548  1.00275748    01
Epoch (UTC): 20 May 2026 06:28:38
Eccentricity: 0.0008307
inclination: 11.8855°
perigee height: 35750 km
apogee height: 35821 km
right ascension of ascending node: 3.7104°
argument of perigee: 1.2654°
revolutions per day: 1.00275748
mean anomaly at epoch: 358.7548°

The dashed part of the orbit path shows where the satellite is in the earth's shadow,  

DLR